Time,TemperatureF,DewpointF,PressureIn,WindDirection,WindDirectionDegrees,WindSpeedMPH,WindSpeedGustMPH,Humidity,HourlyPrecipIn,Conditions,Clouds,dailyrainin,SolarRadiationWatts/m^2,SoftwareType,DateUTC
2013-04-03 00:00:00,37.0,26.0,-100.00,North,11,6.0,13.0,65,0.00,,,0.00,0.000000,,2013-04-03 07:00:00,
2013-04-03 00:23:00,37.0,26.0,-100.00,North,11,6.0,13.0,65,0.00,,,0.00,0.000000,,2013-04-03 07:23:00,
2013-04-03 00:33:00,37.0,26.0,-100.00,North,11,6.0,13.0,65,0.00,,,0.00,0.000000,,2013-04-03 07:33:00,
2013-04-03 00:42:00,37.0,26.0,-100.00,North,11,6.0,13.0,65,0.00,,,0.00,0.000000,,2013-04-03 07:42:00,
2013-04-03 00:53:00,37.0,26.0,-100.00,North,11,6.0,13.0,65,0.00,,,0.00,0.000000,,2013-04-03 07:53:00,
2013-04-03 01:00:00,37.0,28.0,-100.00,North,4,6.0,10.0,69,0.00,,,0.00,0.000000,,2013-04-03 08:00:00,
2013-04-03 01:33:00,37.0,28.0,-100.00,North,4,6.0,10.0,69,0.00,,,0.00,0.000000,,2013-04-03 08:33:00,
2013-04-03 01:43:00,37.0,28.0,-100.00,North,4,6.0,10.0,69,0.00,,,0.00,0.000000,,2013-04-03 08:43:00,
2013-04-03 01:52:00,37.0,28.0,-100.00,North,4,6.0,10.0,69,0.00,,,0.00,0.000000,,2013-04-03 08:52:00,
2013-04-03 02:00:00,35.0,27.0,-100.00,NNE,16,6.0,9.0,73,0.00,,,0.00,0.000000,,2013-04-03 09:00:00,
2013-04-03 02:33:00,35.0,27.0,-100.00,NNE,16,6.0,9.0,73,0.00,,,0.00,0.000000,,2013-04-03 09:33:00,
2013-04-03 02:43:00,35.0,27.0,-100.00,NNE,16,6.0,9.0,73,0.00,,,0.00,0.000000,,2013-04-03 09:43:00,
2013-04-03 02:53:00,35.0,27.0,-100.00,NNE,16,6.0,9.0,73,0.00,,,0.00,0.000000,,2013-04-03 09:53:00,
2013-04-03 03:00:00,35.0,28.0,-100.00,NNE,16,6.0,10.0,74,0.00,,,0.00,0.000000,,2013-04-03 10:00:00,
2013-04-03 03:22:00,35.0,28.0,-100.00,NNE,16,6.0,10.0,74,0.00,,,0.00,0.000000,,2013-04-03 10:22:00,
2013-04-03 03:33:00,35.0,28.0,-100.00,NNE,16,6.0,10.0,74,0.00,,,0.00,0.000000,,2013-04-03 10:33:00,
2013-04-03 03:43:00,35.0,28.0,-100.00,NNE,16,6.0,10.0,74,0.00,,,0.00,0.000000,,2013-04-03 10:43:00,
2013-04-03 03:52:00,35.0,28.0,-100.00,NNE,16,6.0,10.0,74,0.00,,,0.00,0.000000,,2013-04-03 10:52:00,
2013-04-03 04:00:00,35.0,28.0,-100.00,NNE,26,4.0,8.0,76,0.00,,,0.00,0.000000,,2013-04-03 11:00:00,
2013-04-03 04:23:00,35.0,28.0,-100.00,NNE,26,4.0,8.0,76,0.00,,,0.00,0.000000,,2013-04-03 11:23:00,
2013-04-03 04:32:00,35.0,28.0,-100.00,NNE,26,4.0,8.0,76,0.00,,,0.00,0.000000,,2013-04-03 11:32:00,
2013-04-03 04:42:00,35.0,28.0,-100.00,NNE,26,4.0,8.0,76,0.00,,,0.00,0.000000,,2013-04-03 11:42:00,
2013-04-03 04:53:00,35.0,28.0,-100.00,NNE,26,4.0,8.0,76,0.00,,,0.00,0.000000,,2013-04-03 11:53:00,
2013-04-03 05:00:00,35.0,28.0,-100.00,North,355,4.0,7.0,75,0.00,,,0.00,0.000000,,2013-04-03 12:00:00,
2013-04-03 05:22:00,35.0,28.0,-100.00,North,355,4.0,7.0,75,0.00,,,0.00,0.000000,,2013-04-03 12:22:00,
2013-04-03 05:33:00,35.0,28.0,-100.00,North,355,4.0,7.0,75,0.00,,,0.00,0.000000,,2013-04-03 12:33:00,
2013-04-03 05:42:00,35.0,28.0,-100.00,North,355,4.0,7.0,75,0.00,,,0.00,0.000000,,2013-04-03 12:42:00,
2013-04-03 05:52:00,35.0,28.0,-100.00,North,355,4.0,7.0,75,0.00,,,0.00,0.000000,,2013-04-03 12:52:00,
2013-04-03 06:00:00,34.0,26.0,-100.00,NNE,26,6.0,9.0,73,0.00,,,0.00,0.000000,,2013-04-03 13:00:00,
2013-04-03 06:32:00,34.0,26.0,-100.00,NNE,26,6.0,9.0,73,0.00,,,0.00,0.000000,,2013-04-03 13:32:00,
2013-04-03 06:42:00,34.0,26.0,-100.00,NNE,26,6.0,9.0,73,0.00,,,0.00,0.000000,,2013-04-03 13:42:00,
2013-04-03 06:52:00,34.0,26.0,-100.00,NNE,26,6.0,9.0,73,0.00,,,0.00,0.000000,,2013-04-03 13:52:00,
2013-04-03 07:00:00,38.0,28.0,-100.00,NNE,26,6.0,9.0,67,0.00,,,0.00,5.000000,,2013-04-03 14:00:00,
2013-04-03 07:32:00,38.0,28.0,-100.00,NNE,26,6.0,9.0,67,0.00,,,0.00,5.000000,,2013-04-03 14:32:00,
2013-04-03 07:43:00,38.0,28.0,-100.00,NNE,26,6.0,9.0,67,0.00,,,0.00,5.000000,,2013-04-03 14:43:00,
2013-04-03 07:52:00,38.0,28.0,-100.00,NNE,26,6.0,9.0,67,0.00,,,0.00,5.000000,,2013-04-03 14:52:00,
2013-04-03 08:00:00,43.0,29.0,-100.00,North,4,7.0,15.0,57,0.00,,,0.00,30.000000,,2013-04-03 15:00:00,
2013-04-03 08:33:00,43.0,29.0,-100.00,North,4,7.0,15.0,57,0.00,,,0.00,30.000000,,2013-04-03 15:33:00,
2013-04-03 08:43:00,43.0,29.0,-100.00,North,4,7.0,15.0,57,0.00,,,0.00,30.000000,,2013-04-03 15:43:00,
2013-04-03 08:53:00,43.0,29.0,-100.00,North,4,7.0,15.0,57,0.00,,,0.00,30.000000,,2013-04-03 15:53:00,
2013-04-03 09:00:00,50.0,26.0,-100.00,North,8,4.0,12.0,39,0.00,,,0.00,364.000000,,2013-04-03 16:00:00,
2013-04-03 09:33:00,50.0,26.0,-100.00,North,8,4.0,12.0,39,0.00,,,0.00,364.000000,,2013-04-03 16:33:00,
2013-04-03 09:44:00,50.0,26.0,-100.00,North,8,4.0,12.0,39,0.00,,,0.00,364.000000,,2013-04-03 16:44:00,
2013-04-03 09:52:00,50.0,26.0,-100.00,North,8,4.0,12.0,39,0.00,,,0.00,364.000000,,2013-04-03 16:52:00,
2013-04-03 10:00:00,54.0,21.0,-100.00,North,7,7.0,17.0,27,0.00,,,0.00,701.000000,,2013-04-03 17:00:00,
2013-04-03 10:34:00,54.0,21.0,-100.00,North,7,7.0,17.0,27,0.00,,,0.00,701.000000,,2013-04-03 17:34:00,
2013-04-03 10:46:00,54.0,21.0,-100.00,North,7,7.0,17.0,27,0.00,,,0.00,701.000000,,2013-04-03 17:46:00,
2013-04-03 10:53:00,54.0,21.0,-100.00,North,7,7.0,17.0,27,0.00,,,0.00,701.000000,,2013-04-03 17:53:00,
2013-04-03 11:00:00,58.0,22.0,-100.00,NE,46,3.0,15.0,25,0.00,,,0.00,982.000000,,2013-04-03 18:00:00,
2013-04-03 11:34:00,58.0,22.0,-100.00,NE,46,3.0,15.0,25,0.00,,,0.00,982.000000,,2013-04-03 18:34:00,
2013-04-03 11:43:00,58.0,22.0,-100.00,NE,46,3.0,15.0,25,0.00,,,0.00,982.000000,,2013-04-03 18:43:00,
2013-04-03 11:52:00,58.0,22.0,-100.00,NE,46,3.0,15.0,25,0.00,,,0.00,982.000000,,2013-04-03 18:52:00,
2013-04-03 12:00:00,58.0,20.0,-100.00,WNW,283,5.0,11.0,23,0.00,,,0.00,1158.000000,,2013-04-03 19:00:00,
2013-04-03 12:32:00,58.0,20.0,-100.00,WNW,283,5.0,11.0,23,0.00,,,0.00,1158.000000,,2013-04-03 19:32:00,
2013-04-03 12:42:00,58.0,20.0,-100.00,WNW,283,5.0,11.0,23,0.00,,,0.00,1158.000000,,2013-04-03 19:42:00,
2013-04-03 12:52:00,58.0,20.0,-100.00,WNW,283,5.0,11.0,23,0.00,,,0.00,1158.000000,,2013-04-03 19:52:00,
2013-04-03 13:00:00,61.0,20.0,-100.00,ENE,66,4.0,13.0,20,0.00,,,-99.99,1240.000000,,2013-04-03 20:00:00,
2013-04-03 13:33:00,61.0,20.0,-100.00,ENE,66,4.0,13.0,20,0.00,,,-99.99,1240.000000,,2013-04-03 20:33:00,
2013-04-03 13:42:00,61.0,20.0,-100.00,ENE,66,4.0,13.0,20,0.00,,,-99.99,1240.000000,,2013-04-03 20:42:00,
2013-04-03 13:53:00,61.0,20.0,-100.00,ENE,66,4.0,13.0,20,0.00,,,-99.99,1240.000000,,2013-04-03 20:53:00,
2013-04-03 14:00:00,63.0,16.0,-100.00,East,81,7.0,18.0,16,0.00,,,-99.99,1249.000000,,2013-04-03 21:00:00,
2013-04-03 14:33:00,63.0,16.0,-100.00,East,81,7.0,18.0,16,0.00,,,-99.99,1249.000000,,2013-04-03 21:33:00,
2013-04-03 14:42:00,63.0,16.0,-100.00,East,81,7.0,18.0,16,0.00,,,-99.99,1249.000000,,2013-04-03 21:42:00,
2013-04-03 14:52:00,63.0,16.0,-100.00,East,81,7.0,18.0,16,0.00,,,-99.99,1249.000000,,2013-04-03 21:52:00,
2013-04-03 15:00:00,62.0,11.0,-100.00,NW,323,4.0,14.0,13,0.00,,,0.00,1157.000000,,2013-04-03 22:00:00,
2013-04-03 15:33:00,62.0,11.0,-100.00,NW,323,4.0,14.0,13,0.00,,,0.00,1157.000000,,2013-04-03 22:33:00,
2013-04-03 15:42:00,62.0,11.0,-100.00,NW,323,4.0,14.0,13,0.00,,,0.00,1157.000000,,2013-04-03 22:42:00,
2013-04-03 15:52:00,62.0,11.0,-100.00,NW,323,4.0,14.0,13,0.00,,,0.00,1157.000000,,2013-04-03 22:52:00,
2013-04-03 16:00:00,62.0,9.0,-100.00,SSW,200,5.0,12.0,12,0.00,,,0.00,1011.000000,,2013-04-03 23:00:00,
2013-04-03 16:33:00,62.0,9.0,-100.00,SSW,200,5.0,12.0,12,0.00,,,0.00,1011.000000,,2013-04-03 23:33:00,
2013-04-03 16:43:00,62.0,9.0,-100.00,SSW,200,5.0,12.0,12,0.00,,,0.00,1011.000000,,2013-04-03 23:43:00,
2013-04-03 16:54:00,62.0,9.0,-100.00,SSW,200,5.0,12.0,12,0.00,,,0.00,1011.000000,,2013-04-03 23:54:00,
2013-04-03 17:00:00,63.0,10.0,-100.00,South,174,4.0,11.0,12,0.00,,,0.00,795.000000,,2013-04-04 00:00:00,
2013-04-03 17:32:00,63.0,10.0,-100.00,South,174,4.0,11.0,12,0.00,,,0.00,795.000000,,2013-04-04 00:32:00,
2013-04-03 17:43:00,63.0,10.0,-100.00,South,174,4.0,11.0,12,0.00,,,0.00,795.000000,,2013-04-04 00:43:00,
2013-04-03 17:52:00,63.0,10.0,-100.00,South,174,4.0,11.0,12,0.00,,,0.00,795.000000,,2013-04-04 00:52:00,
2013-04-03 18:00:00,59.0,8.0,-100.00,South,171,3.0,10.0,13,0.00,,,0.00,522.000000,,2013-04-04 01:00:00,
2013-04-03 18:32:00,59.0,8.0,-100.00,South,171,3.0,10.0,13,0.00,,,0.00,522.000000,,2013-04-04 01:32:00,
2013-04-03 18:43:00,59.0,8.0,-100.00,South,171,3.0,10.0,13,0.00,,,0.00,522.000000,,2013-04-04 01:43:00,
2013-04-03 18:52:00,59.0,8.0,-100.00,South,171,3.0,10.0,13,0.00,,,0.00,522.000000,,2013-04-04 01:52:00,
2013-04-03 19:00:00,52.0,9.0,-100.00,WSW,248,2.0,8.0,17,0.00,,,0.00,235.000000,,2013-04-04 02:00:00,
2013-04-03 19:22:00,52.0,9.0,-100.00,WSW,248,2.0,8.0,17,0.00,,,0.00,235.000000,,2013-04-04 02:22:00,
2013-04-03 19:32:00,52.0,9.0,-100.00,WSW,248,2.0,8.0,17,0.00,,,0.00,235.000000,,2013-04-04 02:32:00,
2013-04-03 19:42:00,52.0,9.0,-100.00,WSW,248,2.0,8.0,17,0.00,,,0.00,235.000000,,2013-04-04 02:42:00,
2013-04-03 19:52:00,52.0,9.0,-100.00,WSW,248,2.0,8.0,17,0.00,,,0.00,235.000000,,2013-04-04 02:52:00,
2013-04-03 20:00:00,50.0,13.0,-100.00,SW,228,3.0,6.0,22,0.00,,,0.00,13.000000,,2013-04-04 03:00:00,
2013-04-03 20:23:00,50.0,13.0,-100.00,SW,228,3.0,6.0,22,0.00,,,0.00,13.000000,,2013-04-04 03:23:00,
2013-04-03 20:34:00,50.0,13.0,-100.00,SW,228,3.0,6.0,22,0.00,,,0.00,13.000000,,2013-04-04 03:34:00,
2013-04-03 20:45:00,50.0,13.0,-100.00,SW,228,3.0,6.0,22,0.00,,,0.00,13.000000,,2013-04-04 03:45:00,
2013-04-03 20:53:00,50.0,13.0,-100.00,SW,228,3.0,6.0,22,0.00,,,0.00,13.000000,,2013-04-04 03:53:00,
2013-04-03 21:00:00,49.0,14.0,-100.00,West,263,2.0,9.0,24,0.00,,,0.00,0.000000,,2013-04-04 04:00:00,
2013-04-03 21:43:00,49.0,14.0,-100.00,West,263,2.0,9.0,24,0.00,,,0.00,0.000000,,2013-04-04 04:43:00,
2013-04-03 21:53:00,49.0,14.0,-100.00,West,263,2.0,9.0,24,0.00,,,0.00,0.000000,,2013-04-04 04:53:00,
2013-04-03 22:00:00,50.0,17.0,-100.00,NW,310,6.0,13.0,27,0.00,,,0.00,0.000000,,2013-04-04 05:00:00,
2013-04-03 22:32:00,50.0,17.0,-100.00,NW,310,6.0,13.0,27,0.00,,,0.00,0.000000,,2013-04-04 05:32:00,
2013-04-03 22:42:00,50.0,17.0,-100.00,NW,310,6.0,13.0,27,0.00,,,0.00,0.000000,,2013-04-04 05:42:00,
2013-04-03 22:52:00,50.0,17.0,-100.00,NW,310,6.0,13.0,27,0.00,,,0.00,0.000000,,2013-04-04 05:52:00,
2013-04-03 23:00:00,46.0,19.0,-100.00,North,351,5.0,9.0,34,0.00,,,0.00,0.000000,,2013-04-04 06:00:00,
2013-04-03 23:33:00,46.0,19.0,-100.00,North,351,5.0,9.0,34,0.00,,,0.00,0.000000,,2013-04-04 06:33:00,
2013-04-03 23:42:00,46.0,19.0,-100.00,North,351,5.0,9.0,34,0.00,,,0.00,0.000000,,2013-04-04 06:42:00,
2013-04-03 23:52:00,46.0,19.0,-100.00,North,351,5.0,9.0,34,0.00,,,0.00,0.000000,,2013-04-04 06:52:00,